Location: ???? ????
(31.2831°N, 45.5190°E)
Time: 05:07:33
(UTC+00:00)

CZ-2D R/B - Pass Details

Date: 24 February 2021
Orbit: 521 x 536 km, 97.4° (Epoch: 14 April)

Event Time Altitude Azimuth Distance (km) Brightness Sun altitude
Rises 15:14:48 0° 166° (SSE) 2,633 6.7 -5.6°
Reaches altitude 10° 15:16:54 10° 165° (SSE) 1,748 5.8 -6.0°
Maximum altitude 15:20:40 82° 79° (ENE) 531 3.2 -6.8°
Drops below altitude 10° 15:24:27 10° 351° (N) 1,761 5.9 -7.6°
Sets 15:26:34 0° 350° (N) 2,654 6.9 -8.1°
